AirNav   Textron
 
 583 users online  

6A7 Brocker Lake Seaplane Base
Big Lake, Alaska, USA


FAA INFORMATION EFFECTIVE 09 NOVEMBER 2017

Location

FAA Identifier: 6A7
Lat/Long: 61-28-54.6200N / 149-46-23.6800W
61-28.910333N / 149-46.394667W
61.4818389 / -149.7732444
(estimated)
Elevation: 100 ft. / 30 m (estimated)
From city: 3 miles SE of BIG LAKE, AK
Time zone: UTC -9 (UTC -8 during Daylight Saving Time)
Zip code: 99567

Seaplane Base Operations

Seaplane Base use: Open to the public
Activation date: 05/2006
Control tower: no
ARTCC: ANCHORAGE CENTER
FSS: KENAI FLIGHT SERVICE STATION [907-283-8469]
NOTAMs facility: ENA (NOTAM-D service not available)
Attendance: UNATNDD
Wind indicator: yes, WIND INDICATOR LOCATED ON EAST SIDE OF THE LAKE.
Segmented circle: no

Seaplane Base Communications

CTAF: 122.8
WX AWOS-3P at BCV (9 nm SE): 135.55 (907-688-0826)
WX AWOS-3P at IYS (9 nm NE): 135.25 (907-373-3801)
WX AWOS-3 at FRN (13 nm S): 118.525 (907-384-0132)
WX ASOS at MRI (16 nm S): PHONE 907-272-0542
WX ASOS at LHD (19 nm S): PHONE 907-245-1618
WX ASOS at ANC (20 nm S): 118.4 (907-248-2033)

Nearby radio navigation aids

VOR radial/distance  VOR name  Freq  Var
BGQr114/7.6BIG LAKE VORTAC112.5019E
TEDr358/19.6ANCHORAGE VOR/DME113.1518E

 
NDB name  Hdg/Dist  Freq  Var  ID
CAMPBELL LAKE005/20.333818ECMQ -.-. -- --.-

Seaplane Base Services

Runway Information

Runway ALL/WAY

Dimensions: 1200 x 100 ft. / 366 x 30 m
Surface: water, in excellent condition
RUNWAY ALL  RUNWAY WAY
Traffic pattern: leftleft

Seaplane Base Ownership and Management from official FAA records

Ownership: Publicly-owned
Owner: STATE OF AK DNR
DEPT OF NATURAL RESOURCES, 550 W 7TH AVE STE 900
ANCHORAGE, AK 99501
Phone 907-269-8400
Manager: JOSEPH FISCHER
PO BOX 879700
WASILLA, AK 99687
Phone 907-376-0227

Seaplane Base Operational Statistics

Aircraft based on the field: 1
Single engine airplanes: 1
    
Aircraft operations: 50/year *
80% local general aviation
20% transient general aviation
* for 12-month period ending 31 December 2013

Additional Remarks

PUBLIC ACCESS AT NORTH END OF LAKE. NO DESIGNATED TRANSIENT AREAS.
WX CAMERA AVBL ON INTERNET AT HTTP://AVCAMS.FAA.GOV

Instrument Procedures

There are no published instrument procedures at 6A7.

Some nearby airports with instrument procedures:

PAGQ - Big Lake Airport (3 nm N)
PAWS - Wasilla Airport (9 nm NE)
PAFR - Bryant Army Airfield Heliport (13 nm S)
PAED - Elmendorf Air Force Base (14 nm S)
PAMR - Merrill Field Airport (16 nm S)
PAUO - Willow Airport (18 nm NW)
PANC - Ted Stevens Anchorage International Airport (20 nm S)
 
Loc | Ops | Rwys | IFR | FBO | Links
Com | Nav | Svcs | Stats | Notes

Crowley
 
Area around 6A7 (Brocker Lake Seaplane Base)
 
Road maps at: MapQuest Bing Google
 
Aerial photo
No photo
 
Sectional chart

 
Airport distance calculator
Flying to Brocker Lake Seaplane Base? Find the distance to fly.

From to 6A7

Sunrise and sunset
Times for 21-Nov-2017
 Local
(UTC-9)
 Zulu
(UTC)
Morning civil twilight08:3017:30
Sunrise09:2418:24
Sunset16:0601:06
Evening civil twilight17:0002:00

Current date and time
Zulu (UTC)  21-Nov-2017 12:14:46
Local (UTC-9)  21-Nov-2017 03:14:46
 
METAR
PABV 
8nm SE 
211156Z AUTO 11004KT 10SM CLR M16/M17 A2991 RMK AO2 SLP138 T11561172 11122 21156 53004 FZRANO $
PAFR 
13nm S 
211156Z AUTO 00000KT 10SM CLR M17/M18 A2988 RMK AO1
PAED 
14nm S 
211156Z AUTO 02003KT 10SM CLR M18/M20 A2989 RMK AO2 SLP121 T11811198 11123 21197 53003 $
PAMR 
16nm S 
211153Z 00000KT 10SM FEW009 M16/M17 A2990 RMK AO2 SLP127 4/006 I1000 I6000 T11611172 11139 21172 53004
PALH 
19nm S 
211153Z 00000KT 9SM SCT010 M15/M17 A2992 RMK AO2 SLP131 T11501167 11094 21156 53004
TAF
PAED 
14nm S 
211100Z 2111/2217 VRB06KT 9999 FEW020 QNH2980INS BECMG 2123/2124 VRB06KT 6000 -SN FEW010 BKN020 610209 QNH2983INS TEMPO 2200/2206 4800 -SN BKN007 610079 BECMG 2207/2208 VRB06KT 9999 NSW SCT010 QNH2979INS TXM05/2121Z TNM17/2211Z
NOTAMs
Click for the latest NOTAMs
NOTAMs are issued by the DoD/FAA and will open in a separate window not controlled by AirNav.

 

 
 

Would you like to see your business listed on this page?

 If your business provides an interesting product or service to pilots, flight crews, aircraft, or users of the Brocker Lake Seaplane Base, you should consider listing it here.  To start the listing process, click on the button below
 
Add a business
 

Other Pages about Brocker Lake Seaplane Base

Update a link
 
Copyright © AirNav, LLC. All rights reserved. Privacy Policy  Contact